Other Public Products
Issued by NWS Grand Forks, ND

Home | Current Version | Previous Version | Text Only | Print | Product List | Glossary Off
Versions: 1 2 3 4 5 6 7 8 9 10 11 12 13 14 15 16 17 18 19 20 21 22 23 24 25 26 27 28 29 30 31 32 33 34 35 36 37 38 39 40 41 42 43 44 45 46 47 48 49 50

000
FPUS83 KFGF 250231
OPUFGF
PRAIRIE TO PINES WEATHER ROUNDUP
NATIONAL WEATHER SERVICE EASTERN NORTH DAKOTA/GRAND FORKS ND
900 PM CDT SAT JUN 24 2017

 **SATELLITE DATA USED TO AUGMENT SKY COVER AT AUTOMATED STATIONS**
 *****  WEATHER ACROSS EASTERN NORTH DAKOTA  *****

CITY           SKY/WX    TMP DP  RH WIND       PRES   REMARKS
GRAND FORKS    CLOUDY    52  48  86 NW12      30.14S
GRAND FORKS AF NOT AVBL
GRAND CITY NWS NOT AVBL
BUXTON           N/A     52  50  93 NW13        N/A
DEVILS LAKE    CLOUDY    55  45  68 N8        30.20S
FARGO          CLOUDY    53  47  79 NW18G25   30.14R
WAHPETON ARPT  CLOUDY    55  43  62 NW20G25   30.14R
$$

 *****  WEATHER ACROSS CENTRAL AND WESTERN NORTH DAKOTA  *****

CITY           SKY/WX    TMP DP  RH WIND       PRES   REMARKS
JAMESTOWN      CLOUDY    54  46  74 N17       30.20R
BISMARCK       FAIR      60  38  43 N10       30.25S
MINOT          FAIR      59  38  45 NW9       30.24S
MINOT AFB      NOT AVBL
GARRISON         N/A     57  37  47 N10       30.25S
WILLISTON      FAIR      66  33  29 N8        30.27S
DICKINSON      FAIR      60  30  32 N10       30.28R
HETTINGER      FAIR      62  31  31 N13       30.30R
$$

 *****  OTHER OBSERVATIONS NORTHEAST NORTH DAKOTA  *****

CITY           SKY/WX    TMP DP  RH WIND       PRES   REMARKS
WALHALLA       NOT AVBL
LANGDON        FAIR      52  48  87 N8        30.18S
CAVALIER       NOT AVBL
GRAFTON        MOCLDY    52  48  87 NW9       30.18R
CANDO          NOT AVBL
FORT TOTTEN      N/A     55  45  68 N5        29.95S
ROLLA            N/A     50  48  93 NW8       30.22R
RUGBY          NOT AVBL
 ***** THE ABOVE OBSERVATIONS ARE NON NWS ARE NOT QUALITY
        CONTROLLED AND MAY MIS-REPORT RAIN FOR SNOW...
$$

 *****  OTHER OBSERVATIONS SOUTHEAST NORTH DAKOTA *****

CITY           SKY/WX    TMP DP  RH WIND       PRES   REMARKS
COOPERSTOWN    MOCLDY    54  43  66 N12       30.20R
VALLEY CITY    CLOUDY    52  39  62 N14       30.21R
OAKES          NOT AVBL
GWINNER        MOCLDY    55  46  71 NW14      30.18R
SHEYENNE NWR     N/A     56  41  57 NW14      29.95S
BUFFALO          N/A     51  44  77 N14         N/A
WYNDMERE       NOT AVBL
 ***** THE ABOVE OBSERVATIONS ARE NON NWS ARE NOT QUALITY
       CONTROLLED AND MAY MIS-REPORT RAIN FOR SNOW...
$$

  *****  WEATHER ACROSS NORTHERN MINNESOTA  *****

CITY           SKY/WX    TMP DP  RH WIND       PRES   REMARKS
FLAG ISLAND    LGT RAIN  54  52  94 N18G26    30.06R
WARROAD        RAIN      52  48  87 NW16      30.08R
ROSEAU         LGT RAIN  52  46  82 N16       30.08S
HALLOCK        CLOUDY    54  48  82 NW10      30.13R
THF RVR FALLS  NOT AVBL
HALSTAD          N/A     50  48  94 N14         N/A
FOSSTON        DRIZZLE   48  48 100 NW13G18   30.08S
BAUDETTE       LGT RAIN  56  54  93 N7        30.03R
WASKISH        CLOUDY    55  54  94 CALM      30.02S
CROOKSTON      CLOUDY    48  48 100 N16       30.13R
$$
  *****  WEATHER ACROSS CENTRAL AND WEST MINNESOTA  *****

CITY           SKY/WX    TMP DP  RH WIND       PRES   REMARKS
BEMIDJI        CLOUDY    52  51  97 W10       30.04S
PARK RAPIDS    CLOUDY    53  46  77 NW17      30.06R
WADENA         CLOUDY    52  46  82 NW12G21   30.08R
DETROIT LAKES  CLOUDY    50  46  87 NW18G24   30.12R
MOORHEAD       CLOUDY    52  46  82 N15       30.16R HAZE
FERGUS FALLS   CLOUDY    54  46  76 N16G28    30.11R
ELBOW LAKE     CLOUDY    55  49  79 W10       30.12R
MORRIS MN      CLOUDY    55  50  82 W13       30.12S
STAPLES        CLOUDY    52  48  87 NW15      30.07R
WHEATON        CLOUDY    57  43  58 NW14G21   30.16R
$$
  *****  WEATHER ELSEWHERE ACROSS MINNESOTA  *****

CITY           SKY/WX    TMP DP  RH WIND       PRES   REMARKS
DULUTH         MOCLDY    55  49  80 NW8       29.97R
INTRNTL FALLS  CLOUDY    56  53  90 NW5       29.99S
ELY            CLOUDY    54  50  87 CALM      29.97R
CLOQUET        FAIR      55  45  67 CALM      29.99R
BRAINERD       CLOUDY    54  51  90 W15G22    30.05R
HIBBING        CLOUDY    55  49  80 NW6       29.98R
ALEXANDRIA     CLOUDY    55  49  80 NW17G29   30.10S
SAINT CLOUD    MOCLDY    58  48  69 NW8       30.05S
MINNEAPOLIS    MOCLDY    60  45  57 NW9       30.05R
$$

  *****  WEATHER ACROSS SOUTH DAKOTA  *****

CITY           SKY/WX    TMP DP  RH WIND       PRES   REMARKS
SIOUX FALLS    FAIR      61  42  49 N12       30.16R
BROOKINGS      CLOUDY    59  42  53 N15G21    30.17R
WATERTOWN      CLOUDY    57  44  62 NW18G25   30.17R
HURON          FAIR      60  43  53 N15G24    30.20R
SISSETON         N/A     59  46  62 NW20      30.14S
ABERDEEN       CLOUDY    59  44  57 NW18      30.21R
MITCHELL       FAIR      65  38  36 N10       30.19R
PIERRE         FAIR      62  39  42 N13       30.22R
MOBRIDGE       FAIR      62  38  40 N13       30.21S
RAPID CITY     MOCLDY    68  30  24 N16       30.27R
$$

  *****  SOME WEATHER IN NEARBY STATES *****

CITY           SKY/WX    TMP DP  RH WIND       PRES   REMARKS
GLASGOW MT     FAIR      70  34  26 CALM      30.26S
GREAT FALLS MT FAIR      67  39  35 NE18G26   30.30R
CHEYENNE WY    CLOUDY    64  36  35 E10       30.36R
SCOTTSBLUFF NE FAIR      67  39  35 E7        30.28R
OMAHA NE       FAIR      69  45  41 NW7       30.13R
DES MOINES IA  FAIR      72  40  31 NW10      30.09R
DAVENPORT IA   MOCLDY    66  48  52 SW9       30.04S
CHICAGO IL     MOCLDY    68  43  40 NW8       30.03R
EAU CLAIRE WI  FAIR      57  47  69 W6        30.00S
LA CROSSE WI   FAIR      59  50  72 SW5       30.04R
$$

  *****  SOME NATIONAL WEATHER *****

CITY           SKY/WX    TMP DP  RH WIND       PRES   REMARKS
LA GUARDIA NY  FAIR      82  60  47 SW14G21   29.86R
RALEIGH NC     CLOUDY    73  72  96 SW5       30.02R
ATLANTA GA     LGT RAIN  75  73  93 NW16      30.09R FOG
NEW ORLEANS LA MOCLDY    76  75  97 N3        30.06S
OKLAHOMA CITY  MOCLDY    78  52  40 E12       30.17R
ALBUQUERQUE NM MOCLDY    79  48  33 S31G40    30.18R
SALT LAKE CITY FAIR      86  22   9 N6        30.12S
LOS ANGELES CA FAIR      67  60  78 W12       29.85S
BOISE ID       FAIR      86  34  15 W10       30.08S
SEATTLE WA     FAIR      88  54  31 N10       30.00F
$$

*** WEATHER ACROSS MANITOBA...SASKATCHEWAN AND ONTARIO ***
                ***ONTARIO***

CITY           SKY/WX    TMP DP  RH WIND       PRES   REMARKS
GERALDTON      MOCLDY    61  43  51 N8        29.92R
THUNDER BAY    MOCLDY    59  52  77 N5        29.91S
SIOUX LOOKOUT  MOCLDY    55  52  88 N6        30.00R
TORONTO        PTCLDY    64  54  68 W9        29.90R
BIG TROUT LK   PTCLDY    54  37  54 NE3       30.04R
PICKLE LAKE    MOCLDY    54  43  66 N7        30.02R
DRYDEN         CLOUDY    52  52 100 NW5       30.01R
KENORA         CLOUDY    52  48  87 N7        30.07R
$$
                *** MANITOBA***

CITY           SKY/WX    TMP DP  RH WIND       PRES   REMARKS
BRANDON        PTCLDY    54  46  76 NW6       30.20S
DAUPHIN        PTCLDY    54  43  66 NW6       30.20S
ISLAND LAKE    MOCLDY    57  37  47 NW5       30.09S
PILOT MOUND      N/A     50  43  76 NW6         N/A
THE PAS        PTCLDY    57  39  51 CALM      30.19S
THOMPSON       PTCLDY    61  32  33 N9G18     30.10S
WINNIPEG       MOCLDY    54  48  82 NW8       30.14S
LYNN LAKE      SUNNY     59  37  44 N12       30.16S
CHURCHILL      PTCLDY    61  37  41 SW7       30.02F
GILLAM         PTCLDY    59  37  44 NE10      30.07S
$$
                ***SASKATCHEWAN***

CITY           SKY/WX    TMP DP  RH WIND       PRES   REMARKS
ESTEVAN        PTCLDY    59  45  58 N5        30.24S
KINDERSLEY     CLOUDY    57  52  82 S5        30.25S
LLOYDMINSTER   PTSUNNY   54  54 100 E8        30.26F
PRINCE ALBERT  MOSUNNY   61  43  51 NE3       30.23R
REGINA         MOCLDY    57  45  62 N7        30.25
YORKTON        MOCLDY    55  46  71 NE6       30.22R



USA.gov is the U.S. government's official web portal to all federal, state and local government web resources and services.